Time,TemperatureF,DewpointF,PressureIn,WindDirection,WindDirectionDegrees,WindSpeedMPH,WindSpeedGustMPH,Humidity,HourlyPrecipIn,Conditions,Clouds,dailyrainin,SoftwareType,DateUTC
2013-09-05 00:01:00,66.8,59.4,30.00,West,273,0.0,0.0,77,0.00,,---,0.00,VWS V14.00,2013-09-05 04:01:00,
2013-09-05 00:02:00,66.8,59.4,30.00,West,273,0.0,0.0,77,0.00,,---,0.00,VWS V14.00,2013-09-05 04:02:00,
2013-09-05 00:03:00,66.7,59.3,29.99,West,273,0.0,0.0,77,0.00,,---,0.00,VWS V14.00,2013-09-05 04:03:00,
2013-09-05 00:04:00,66.7,59.3,30.00,West,273,0.0,0.0,77,0.00,,---,0.00,VWS V14.00,2013-09-05 04:04:00,
2013-09-05 00:10:00,66.4,59.0,29.99,West,273,0.0,0.0,77,0.00,,---,0.00,VWS V14.00,2013-09-05 04:10:00,
2013-09-05 00:15:00,66.2,59.2,29.99,West,273,0.0,0.0,78,0.00,,---,0.00,VWS V14.00,2013-09-05 04:15:00,
2013-09-05 00:20:00,66.1,59.0,29.99,West,273,0.0,0.0,78,0.00,,---,0.00,VWS V14.00,2013-09-05 04:20:00,
2013-09-05 00:25:00,66.1,59.0,29.99,West,273,0.0,0.0,78,0.00,,---,0.00,VWS V14.00,2013-09-05 04:25:00,
2013-09-05 00:30:00,66.2,59.2,29.99,West,273,0.0,0.0,78,0.00,,---,0.00,VWS V14.00,2013-09-05 04:30:00,
2013-09-05 00:35:00,66.3,58.9,29.99,West,273,0.0,0.0,77,0.00,,---,0.00,VWS V14.00,2013-09-05 04:35:00,
2013-09-05 00:40:00,66.5,59.4,29.99,West,273,0.0,0.0,78,0.00,,---,0.00,VWS V14.00,2013-09-05 04:40:00,
2013-09-05 00:45:00,66.4,59.3,29.98,West,273,0.0,0.0,78,0.00,,---,0.00,VWS V14.00,2013-09-05 04:45:00,
2013-09-05 00:50:00,66.2,59.2,29.98,West,270,0.0,0.0,78,0.00,,---,0.00,VWS V14.00,2013-09-05 04:50:00,
2013-09-05 00:55:00,66.0,59.3,29.98,South,183,0.0,0.0,79,0.00,,---,0.00,VWS V14.00,2013-09-05 04:55:00,
2013-09-05 01:00:00,65.8,59.1,29.98,South,183,0.0,0.0,79,0.00,,---,0.00,VWS V14.00,2013-09-05 05:00:00,
2013-09-05 01:05:00,65.7,59.0,29.99,South,185,0.0,0.0,79,0.00,,---,0.00,VWS V14.00,2013-09-05 05:05:00,
2013-09-05 01:10:00,65.5,59.2,29.98,South,185,0.0,0.0,80,0.00,,---,0.00,VWS V14.00,2013-09-05 05:10:00,
2013-09-05 01:15:00,65.4,59.1,29.99,South,188,0.0,0.0,80,0.00,,---,0.00,VWS V14.00,2013-09-05 05:15:00,
2013-09-05 01:20:00,65.2,58.9,29.99,West,267,0.0,0.0,80,0.00,,---,0.00,VWS V14.00,2013-09-05 05:20:00,
2013-09-05 01:25:00,65.0,59.0,29.98,West,267,0.0,0.0,81,0.00,,---,0.00,VWS V14.00,2013-09-05 05:25:00,
2013-09-05 01:30:00,64.8,59.2,29.98,West,267,0.0,0.0,82,0.00,,---,0.00,VWS V14.00,2013-09-05 05:30:00,
2013-09-05 01:36:00,64.7,59.1,29.98,West,263,0.0,0.0,82,0.00,,---,0.00,VWS V14.00,2013-09-05 05:36:00,
2013-09-05 01:41:00,64.6,59.0,29.98,West,263,0.0,0.0,82,0.00,,---,0.00,VWS V14.00,2013-09-05 05:41:00,
2013-09-05 01:46:00,64.6,59.3,29.98,West,263,0.0,0.0,83,0.00,,---,0.00,VWS V14.00,2013-09-05 05:46:00,
2013-09-05 01:51:00,64.5,59.2,29.98,West,263,0.0,0.0,83,0.00,,---,0.00,VWS V14.00,2013-09-05 05:51:00,
2013-09-05 01:56:00,64.4,59.1,29.98,SSW,194,0.0,0.0,83,0.00,,---,0.00,VWS V14.00,2013-09-05 05:56:00,
2013-09-05 02:01:00,64.3,59.0,29.98,SSW,194,0.0,0.0,83,0.00,,---,0.00,VWS V14.00,2013-09-05 06:01:00,
2013-09-05 02:06:00,64.3,59.4,29.98,SSW,194,0.0,0.0,84,0.00,,---,0.00,VWS V14.00,2013-09-05 06:06:00,
2013-09-05 02:11:00,64.1,59.2,29.97,SSW,194,0.0,0.0,84,0.00,,---,0.00,VWS V14.00,2013-09-05 06:11:00,
2013-09-05 02:16:00,64.0,59.4,29.97,SSW,194,0.0,0.0,85,0.00,,---,0.00,VWS V14.00,2013-09-05 06:16:00,
2013-09-05 02:21:00,63.9,59.3,29.97,SSW,194,0.0,0.0,85,0.00,,---,0.00,VWS V14.00,2013-09-05 06:21:00,
2013-09-05 02:26:00,63.8,59.2,29.97,SSW,194,0.0,0.0,85,0.00,,---,0.00,VWS V14.00,2013-09-05 06:26:00,
2013-09-05 02:31:00,63.6,59.0,29.98,SSW,194,0.0,0.0,85,0.00,,---,0.00,VWS V14.00,2013-09-05 06:31:00,
2013-09-05 02:36:00,63.4,59.2,29.97,SSW,194,0.0,0.0,86,0.00,,---,0.00,VWS V14.00,2013-09-05 06:36:00,
2013-09-05 02:41:00,63.2,59.0,29.97,West,263,0.0,0.0,86,0.00,,---,0.00,VWS V14.00,2013-09-05 06:41:00,
2013-09-05 02:46:00,63.1,59.2,29.97,West,263,0.0,0.0,87,0.00,,---,0.00,VWS V14.00,2013-09-05 06:46:00,
2013-09-05 02:51:00,63.0,59.1,29.97,West,263,0.0,0.0,87,0.00,,---,0.00,VWS V14.00,2013-09-05 06:51:00,
2013-09-05 02:57:00,62.9,59.0,29.97,West,263,0.0,0.0,87,0.00,,---,0.00,VWS V14.00,2013-09-05 06:57:00,
2013-09-05 03:02:00,62.7,58.8,29.97,West,263,0.0,0.0,87,0.00,,---,0.00,VWS V14.00,2013-09-05 07:02:00,
2013-09-05 03:07:00,62.6,59.0,29.97,West,263,0.0,0.0,88,0.00,,---,0.00,VWS V14.00,2013-09-05 07:07:00,
2013-09-05 03:12:00,62.5,58.9,29.97,West,263,0.0,0.0,88,0.00,,---,0.00,VWS V14.00,2013-09-05 07:12:00,
2013-09-05 03:17:00,62.3,58.7,29.97,West,263,0.0,0.0,88,0.00,,---,0.00,VWS V14.00,2013-09-05 07:17:00,
2013-09-05 03:22:00,62.2,58.6,29.97,SSW,193,0.0,0.0,88,0.00,,---,0.00,VWS V14.00,2013-09-05 07:22:00,
2013-09-05 03:27:00,62.1,58.8,29.96,SSW,193,0.0,0.0,89,0.00,,---,0.00,VWS V14.00,2013-09-05 07:27:00,
2013-09-05 03:32:00,62.0,58.7,29.97,SSW,193,0.0,0.0,89,0.00,,---,0.00,VWS V14.00,2013-09-05 07:32:00,
2013-09-05 03:37:00,62.0,58.7,29.97,SSW,193,0.0,0.0,89,0.00,,---,0.00,VWS V14.00,2013-09-05 07:37:00,
2013-09-05 03:42:00,62.0,59.0,29.96,SSW,193,0.0,0.0,90,0.00,,---,0.00,VWS V14.00,2013-09-05 07:42:00,
2013-09-05 03:47:00,62.0,59.0,29.96,SSW,193,0.0,0.0,90,0.00,,---,0.00,VWS V14.00,2013-09-05 07:47:00,
2013-09-05 03:52:00,62.0,59.0,29.96,SSW,193,0.0,0.0,90,0.00,,---,0.00,VWS V14.00,2013-09-05 07:52:00,
2013-09-05 03:57:00,61.9,58.9,29.96,SSW,193,0.0,0.0,90,0.00,,---,0.00,VWS V14.00,2013-09-05 07:57:00,
2013-09-05 04:02:00,61.8,58.8,29.96,SSW,193,0.0,0.0,90,0.00,,---,0.00,VWS V14.00,2013-09-05 08:02:00,
2013-09-05 04:07:00,61.8,58.8,29.97,SSW,193,0.0,0.0,90,0.00,,---,0.00,VWS V14.00,2013-09-05 08:07:00,
2013-09-05 04:12:00,61.8,58.8,29.97,SSW,193,0.0,0.0,90,0.00,,---,0.00,VWS V14.00,2013-09-05 08:12:00,
2013-09-05 04:17:00,61.8,58.8,29.97,SSW,193,0.0,0.0,90,0.00,,---,0.00,VWS V14.00,2013-09-05 08:17:00,
2013-09-05 04:22:00,61.6,58.6,29.96,SSW,193,0.0,0.0,90,0.00,,---,0.00,VWS V14.00,2013-09-05 08:22:00,
2013-09-05 04:27:00,61.5,58.5,29.97,SSW,193,0.0,0.0,90,0.00,,---,0.00,VWS V14.00,2013-09-05 08:27:00,
2013-09-05 04:33:00,61.4,58.8,29.97,SSW,193,0.0,0.0,91,0.00,,---,0.00,VWS V14.00,2013-09-05 08:33:00,
2013-09-05 04:38:00,61.5,58.8,29.97,SSW,193,0.0,0.0,91,0.00,,---,0.00,VWS V14.00,2013-09-05 08:38:00,
2013-09-05 04:43:00,61.4,58.8,29.97,SSW,193,0.0,0.0,91,0.00,,---,0.00,VWS V14.00,2013-09-05 08:43:00,
2013-09-05 04:48:00,61.3,58.7,29.96,SSW,193,0.0,0.0,91,0.00,,---,0.00,VWS V14.00,2013-09-05 08:48:00,
2013-09-05 04:53:00,61.2,58.6,29.96,SSW,193,0.0,0.0,91,0.00,,---,0.00,VWS V14.00,2013-09-05 08:53:00,
2013-09-05 04:58:00,61.2,58.6,29.97,SSW,193,0.0,0.0,91,0.00,,---,0.00,VWS V14.00,2013-09-05 08:58:00,
2013-09-05 05:03:00,61.2,58.6,29.97,SSW,193,0.0,0.0,91,0.00,,---,0.00,VWS V14.00,2013-09-05 09:03:00,
2013-09-05 05:08:00,61.3,58.7,29.97,SSW,193,0.0,0.0,91,0.00,,---,0.00,VWS V14.00,2013-09-05 09:08:00,
2013-09-05 05:13:00,61.3,58.7,29.97,SSW,193,0.0,0.0,91,0.00,,---,0.00,VWS V14.00,2013-09-05 09:13:00,
2013-09-05 05:18:00,61.3,58.7,29.97,SSW,193,0.0,0.0,91,0.00,,---,0.00,VWS V14.00,2013-09-05 09:18:00,
2013-09-05 05:23:00,61.3,58.7,29.97,SSW,193,0.0,0.0,91,0.00,,---,0.00,VWS V14.00,2013-09-05 09:23:00,
2013-09-05 05:28:00,61.3,58.7,29.98,SSW,193,0.0,0.0,91,0.00,,---,0.00,VWS V14.00,2013-09-05 09:28:00,
2013-09-05 05:33:00,61.1,58.5,29.98,SSW,193,0.0,0.0,91,0.00,,---,0.00,VWS V14.00,2013-09-05 09:33:00,
2013-09-05 05:38:00,61.1,58.5,29.97,SSW,193,0.0,0.0,91,0.00,,---,0.00,VWS V14.00,2013-09-05 09:38:00,
2013-09-05 05:43:00,61.0,58.7,29.97,SSW,193,0.0,0.0,92,0.00,,---,0.00,VWS V14.00,2013-09-05 09:43:00,
2013-09-05 05:48:00,60.8,58.2,29.97,SSW,193,0.0,0.0,91,0.00,,---,0.00,VWS V14.00,2013-09-05 09:48:00,
2013-09-05 05:53:00,60.6,58.0,29.97,SSW,193,0.0,0.0,91,0.00,,---,0.00,VWS V14.00,2013-09-05 09:53:00,
2013-09-05 05:58:00,60.6,58.3,29.97,SSW,193,0.0,0.0,92,0.00,,---,0.00,VWS V14.00,2013-09-05 09:58:00,
2013-09-05 06:04:00,60.6,58.3,29.98,SSW,193,0.0,0.0,92,0.00,,---,0.00,VWS V14.00,2013-09-05 10:04:00,
2013-09-05 06:09:00,60.6,58.3,29.98,SSW,193,0.0,0.0,92,0.00,,---,0.00,VWS V14.00,2013-09-05 10:09:00,
2013-09-05 06:14:00,60.7,58.4,29.98,SSW,193,0.0,0.0,92,0.00,,---,0.00,VWS V14.00,2013-09-05 10:14:00,
2013-09-05 06:19:00,60.6,58.3,29.98,SSW,193,0.0,0.0,92,0.00,,---,0.00,VWS V14.00,2013-09-05 10:19:00,
2013-09-05 06:24:00,60.5,58.2,29.98,SSW,193,0.0,0.0,92,0.00,,---,0.00,VWS V14.00,2013-09-05 10:24:00,
2013-09-05 06:29:00,60.4,58.1,29.98,SSW,193,0.0,0.0,92,0.00,,---,0.00,VWS V14.00,2013-09-05 10:29:00,
2013-09-05 06:34:00,60.4,58.4,29.98,SSW,193,0.0,0.0,93,0.00,,---,0.00,VWS V14.00,2013-09-05 10:34:00,
2013-09-05 06:39:00,60.4,58.4,29.98,SSW,193,0.0,0.0,93,0.00,,---,0.00,VWS V14.00,2013-09-05 10:39:00,
2013-09-05 06:44:00,60.4,58.4,29.98,SSW,193,0.0,0.0,93,0.00,,---,0.00,VWS V14.00,2013-09-05 10:44:00,
2013-09-05 06:49:00,60.4,58.4,29.98,East,92,0.0,0.0,93,0.00,,---,0.00,VWS V14.00,2013-09-05 10:49:00,
2013-09-05 06:54:00,60.4,58.4,29.98,East,92,0.0,0.0,93,0.00,,---,0.00,VWS V14.00,2013-09-05 10:54:00,
2013-09-05 06:59:00,60.4,58.4,29.99,East,92,0.0,0.0,93,0.00,,---,0.00,VWS V14.00,2013-09-05 10:59:00,
2013-09-05 07:04:00,60.5,58.5,29.99,East,92,0.0,0.0,93,0.00,,---,0.00,VWS V14.00,2013-09-05 11:04:00,
2013-09-05 07:09:00,60.6,58.6,29.99,East,92,0.0,0.0,93,0.00,,---,0.00,VWS V14.00,2013-09-05 11:09:00,
2013-09-05 07:14:00,60.7,58.7,29.99,East,92,0.0,0.0,93,0.00,,---,0.00,VWS V14.00,2013-09-05 11:14:00,
2013-09-05 07:19:00,60.8,58.8,29.99,East,92,0.0,0.0,93,0.00,,---,0.00,VWS V14.00,2013-09-05 11:19:00,
2013-09-05 07:24:00,61.0,59.0,29.99,East,92,0.0,0.0,93,0.00,,---,0.00,VWS V14.00,2013-09-05 11:24:00,
2013-09-05 07:30:00,61.2,59.2,29.99,East,92,0.0,0.0,93,0.00,,---,0.00,VWS V14.00,2013-09-05 11:30:00,
2013-09-05 07:35:00,61.5,59.5,29.99,East,92,0.0,0.0,93,0.00,,---,0.00,VWS V14.00,2013-09-05 11:35:00,
2013-09-05 07:40:00,61.8,59.8,29.99,East,92,0.0,1.0,93,0.00,,---,0.00,VWS V14.00,2013-09-05 11:40:00,
2013-09-05 07:45:00,62.3,60.2,29.99,East,92,0.0,0.0,93,0.00,,---,0.00,VWS V14.00,2013-09-05 11:45:00,
2013-09-05 07:50:00,62.7,60.3,29.99,East,92,0.0,0.0,92,0.00,,---,0.00,VWS V14.00,2013-09-05 11:50:00,
2013-09-05 07:55:00,63.1,60.4,29.99,East,92,0.0,0.0,91,0.00,,---,0.00,VWS V14.00,2013-09-05 11:55:00,
2013-09-05 08:00:00,63.8,60.5,29.99,East,92,0.0,0.0,89,0.00,,---,0.00,VWS V14.00,2013-09-05 12:00:00,
2013-09-05 08:05:00,64.5,60.5,29.99,East,92,0.0,1.0,87,0.00,,---,0.00,VWS V14.00,2013-09-05 12:05:00,
2013-09-05 08:10:00,65.4,60.5,29.99,ESE,113,0.0,0.0,84,0.00,,---,0.00,VWS V14.00,2013-09-05 12:10:00,
2013-09-05 08:15:00,66.2,60.5,29.99,West,280,1.0,2.0,82,0.00,,---,0.00,VWS V14.00,2013-09-05 12:15:00,
2013-09-05 08:20:00,66.7,60.7,29.99,West,279,0.0,1.0,81,0.00,,---,0.00,VWS V14.00,2013-09-05 12:20:00,
2013-09-05 08:25:00,67.1,60.7,30.00,WNW,296,1.0,1.0,80,0.00,,---,0.00,VWS V14.00,2013-09-05 12:25:00,
2013-09-05 08:30:00,67.5,60.8,30.00,WNW,286,0.0,1.0,79,0.00,,---,0.00,VWS V14.00,2013-09-05 12:30:00,
2013-09-05 08:35:00,67.8,61.1,30.00,WNW,291,1.0,1.0,79,0.00,,---,0.00,VWS V14.00,2013-09-05 12:35:00,
2013-09-05 08:40:00,68.1,61.0,30.00,WNW,296,2.0,2.0,78,0.00,,---,0.00,VWS V14.00,2013-09-05 12:40:00,
2013-09-05 08:45:00,68.4,61.3,30.00,WNW,298,2.0,2.0,78,0.00,,---,0.00,VWS V14.00,2013-09-05 12:45:00,
2013-09-05 08:51:00,68.7,61.2,30.00,NW,310,0.0,2.0,77,0.00,,---,0.00,VWS V14.00,2013-09-05 12:51:00,
2013-09-05 08:56:00,68.8,60.9,30.00,WNW,300,0.0,1.0,76,0.00,,---,0.00,VWS V14.00,2013-09-05 12:56:00,
2013-09-05 09:01:00,68.9,61.4,30.00,West,281,1.0,2.0,77,0.00,,---,0.00,VWS V14.00,2013-09-05 13:01:00,
2013-09-05 09:06:00,69.1,61.6,30.00,WNW,288,0.0,1.0,77,0.00,,---,0.00,VWS V14.00,2013-09-05 13:06:00,
2013-09-05 09:11:00,69.5,61.2,30.00,WNW,288,1.0,2.0,75,0.00,,---,0.00,VWS V14.00,2013-09-05 13:11:00,
2013-09-05 09:16:00,69.9,62.0,30.00,WNW,288,2.0,2.0,76,0.00,,---,0.00,VWS V14.00,2013-09-05 13:16:00,
2013-09-05 09:21:00,70.1,62.2,30.00,NW,317,0.0,0.0,76,0.00,,---,0.00,VWS V14.00,2013-09-05 13:21:00,
2013-09-05 09:26:00,70.1,61.4,30.00,NW,317,0.0,0.0,74,0.00,,---,0.00,VWS V14.00,2013-09-05 13:26:00,
2013-09-05 09:31:00,70.2,61.9,30.00,NW,317,1.0,2.0,75,0.00,,---,0.00,VWS V14.00,2013-09-05 13:31:00,
2013-09-05 09:36:00,70.3,61.6,30.00,NW,317,0.0,0.0,74,0.00,,---,0.00,VWS V14.00,2013-09-05 13:36:00,
2013-09-05 09:41:00,70.6,61.5,30.00,NW,326,3.0,4.0,73,0.00,,---,0.00,VWS V14.00,2013-09-05 13:41:00,
2013-09-05 09:46:00,70.9,61.8,30.00,NW,315,1.0,1.0,73,0.00,,---,0.00,VWS V14.00,2013-09-05 13:46:00,
2013-09-05 09:51:00,71.0,61.5,30.00,NW,315,1.0,1.0,72,0.00,,---,0.00,VWS V14.00,2013-09-05 13:51:00,
2013-09-05 09:56:00,71.0,61.5,30.00,NW,315,0.0,0.0,72,0.00,,---,0.00,VWS V14.00,2013-09-05 13:56:00,
2013-09-05 10:01:00,71.1,62.0,30.00,NW,315,0.0,0.0,73,0.00,,---,0.00,VWS V14.00,2013-09-05 14:01:00,
2013-09-05 10:06:00,71.1,62.0,30.00,NW,315,0.0,0.0,73,0.00,,---,0.00,VWS V14.00,2013-09-05 14:06:00,
2013-09-05 10:11:00,71.2,62.5,30.00,NW,315,0.0,0.0,74,0.00,,---,0.00,VWS V14.00,2013-09-05 14:11:00,
2013-09-05 10:16:00,71.5,62.4,30.00,NW,315,0.0,1.0,73,0.00,,---,0.00,VWS V14.00,2013-09-05 14:16:00,
2013-09-05 10:21:00,72.0,62.5,30.00,NW,315,0.0,0.0,72,0.00,,---,0.00,VWS V14.00,2013-09-05 14:21:00,
2013-09-05 10:26:00,72.4,62.9,30.00,NW,315,0.0,0.0,72,0.00,,---,0.00,VWS V14.00,2013-09-05 14:26:00,
2013-09-05 10:32:00,72.6,62.7,30.00,NW,315,0.0,1.0,71,0.00,,---,0.00,VWS V14.00,2013-09-05 14:32:00,
2013-09-05 10:37:00,73.0,63.0,29.99,NW,315,0.0,0.0,71,0.00,,---,0.00,VWS V14.00,2013-09-05 14:37:00,
2013-09-05 10:42:00,73.3,62.1,29.99,West,281,0.0,1.0,68,0.00,,---,0.00,VWS V14.00,2013-09-05 14:42:00,
2013-09-05 10:47:00,73.5,61.9,29.99,West,281,0.0,1.0,67,0.00,,---,0.00,VWS V14.00,2013-09-05 14:47:00,
2013-09-05 10:52:00,73.7,62.1,29.99,West,281,1.0,2.0,67,0.00,,---,0.00,VWS V14.00,2013-09-05 14:52:00,
2013-09-05 10:57:00,73.7,62.1,29.99,NW,325,0.0,1.0,67,0.00,,---,0.00,VWS V14.00,2013-09-05 14:57:00,
2013-09-05 11:02:00,73.9,62.3,30.00,NW,316,1.0,3.0,67,0.00,,---,0.00,VWS V14.00,2013-09-05 15:02:00,
2013-09-05 11:07:00,74.1,62.0,29.99,WNW,301,0.0,0.0,66,0.00,,---,0.00,VWS V14.00,2013-09-05 15:07:00,
2013-09-05 11:12:00,74.2,62.5,29.99,WNW,300,0.0,0.0,67,0.00,,---,0.00,VWS V14.00,2013-09-05 15:12:00,
2013-09-05 11:17:00,74.3,62.6,29.99,NNW,345,3.0,4.0,67,0.00,,---,0.00,VWS V14.00,2013-09-05 15:17:00,
2013-09-05 11:22:00,74.2,62.1,30.00,NW,321,2.0,2.0,66,0.00,,---,0.00,VWS V14.00,2013-09-05 15:22:00,
2013-09-05 11:27:00,74.0,62.4,30.00,NW,321,2.0,3.0,67,0.00,,---,0.00,VWS V14.00,2013-09-05 15:27:00,
2013-09-05 11:32:00,73.9,62.3,30.00,NNW,339,3.0,4.0,67,0.00,,---,0.00,VWS V14.00,2013-09-05 15:32:00,
2013-09-05 11:37:00,73.7,62.1,30.00,NW,324,2.0,3.0,67,0.00,,---,0.00,VWS V14.00,2013-09-05 15:37:00,
2013-09-05 11:42:00,73.7,62.5,30.00,NNW,346,3.0,5.0,68,0.00,,---,0.00,VWS V14.00,2013-09-05 15:42:00,
2013-09-05 11:47:00,73.8,62.2,30.00,NNW,329,2.0,3.0,67,0.00,,---,0.00,VWS V14.00,2013-09-05 15:47:00,
2013-09-05 11:52:00,73.7,62.5,30.00,NW,325,4.0,4.0,68,0.00,,---,0.00,VWS V14.00,2013-09-05 15:52:00,
2013-09-05 11:58:00,73.6,62.4,30.00,NW,317,1.0,2.0,68,0.00,,---,0.00,VWS V14.00,2013-09-05 15:58:00,
2013-09-05 12:03:00,73.5,62.3,30.00,NW,317,0.0,1.0,68,0.00,,---,0.00,VWS V14.00,2013-09-05 16:03:00,
2013-09-05 12:08:00,73.6,62.4,30.00,NW,313,2.0,3.0,68,0.00,,---,0.00,VWS V14.00,2013-09-05 16:08:00,
2013-09-05 12:13:00,73.5,62.3,30.00,WNW,300,2.0,2.0,68,0.00,,---,0.00,VWS V14.00,2013-09-05 16:13:00,
2013-09-05 12:18:00,73.4,62.2,30.00,NW,321,1.0,1.0,68,0.00,,---,0.00,VWS V14.00,2013-09-05 16:18:00,
2013-09-05 12:23:00,73.3,62.5,30.01,NW,324,2.0,3.0,69,0.00,,---,0.00,VWS V14.00,2013-09-05 16:23:00,
2013-09-05 12:28:00,73.4,63.0,30.01,NNW,336,1.0,1.0,70,0.00,,---,0.00,VWS V14.00,2013-09-05 16:28:00,
2013-09-05 12:33:00,73.5,63.1,30.01,NW,319,2.0,2.0,70,0.00,,---,0.00,VWS V14.00,2013-09-05 16:33:00,
2013-09-05 12:38:00,73.4,63.0,30.01,NW,319,0.0,0.0,70,0.00,,---,0.00,VWS V14.00,2013-09-05 16:38:00,
2013-09-05 12:43:00,73.2,62.8,30.01,NW,319,2.0,3.0,70,0.00,,---,0.00,VWS V14.00,2013-09-05 16:43:00,
2013-09-05 12:48:00,73.0,62.7,30.01,NW,319,0.0,0.0,70,0.00,,---,0.00,VWS V14.00,2013-09-05 16:48:00,
2013-09-05 12:53:00,72.9,62.5,30.01,NW,319,0.0,0.0,70,0.00,,---,0.00,VWS V14.00,2013-09-05 16:53:00,
2013-09-05 12:58:00,73.0,62.2,30.00,NW,319,0.0,1.0,69,0.00,,---,0.00,VWS V14.00,2013-09-05 16:58:00,
2013-09-05 13:03:00,73.0,62.2,30.00,WNW,284,0.0,0.0,69,0.00,,---,0.00,VWS V14.00,2013-09-05 17:03:00,
2013-09-05 13:09:00,73.1,62.7,30.00,NW,308,0.0,1.0,70,0.00,,---,0.00,VWS V14.00,2013-09-05 17:09:00,
2013-09-05 13:14:00,73.5,62.3,30.00,WNW,284,1.0,3.0,68,0.00,,---,0.00,VWS V14.00,2013-09-05 17:14:00,
2013-09-05 13:19:00,73.9,62.7,30.00,WNW,284,1.0,1.0,68,0.00,,---,0.00,VWS V14.00,2013-09-05 17:19:00,
2013-09-05 13:24:00,74.2,63.0,30.00,NW,325,0.0,0.0,68,0.00,,---,0.00,VWS V14.00,2013-09-05 17:24:00,
2013-09-05 13:29:00,74.8,63.1,30.00,NW,312,2.0,3.0,67,0.00,,---,0.00,VWS V14.00,2013-09-05 17:29:00,
2013-09-05 13:34:00,74.9,62.3,30.00,NNW,331,2.0,3.0,65,0.00,,---,0.00,VWS V14.00,2013-09-05 17:34:00,
2013-09-05 13:39:00,74.9,62.8,30.00,North,350,0.0,1.0,66,0.00,,---,0.00,VWS V14.00,2013-09-05 17:39:00,
2013-09-05 13:44:00,75.2,63.5,30.00,North,350,0.0,0.0,67,0.00,,---,0.00,VWS V14.00,2013-09-05 17:44:00,
2013-09-05 13:49:00,75.4,63.3,30.00,WNW,293,2.0,3.0,66,0.00,,---,0.00,VWS V14.00,2013-09-05 17:49:00,
2013-09-05 13:54:00,75.7,63.1,30.00,NNW,338,0.0,2.0,65,0.00,,---,0.00,VWS V14.00,2013-09-05 17:54:00,
2013-09-05 13:59:00,75.3,63.2,30.00,WNW,286,1.0,1.0,66,0.00,,---,0.00,VWS V14.00,2013-09-05 17:59:00,
2013-09-05 14:04:00,75.3,63.2,30.00,WNW,300,0.0,0.0,66,0.00,,---,0.00,VWS V14.00,2013-09-05 18:04:00,
2013-09-05 14:10:00,75.3,63.2,30.00,NNW,338,0.0,1.0,66,0.00,,---,0.00,VWS V14.00,2013-09-05 18:10:00,
2013-09-05 14:15:00,74.9,62.8,30.00,NNE,12,0.0,1.0,66,0.00,,---,0.00,VWS V14.00,2013-09-05 18:15:00,
2013-09-05 14:20:00,74.6,62.9,30.00,North,5,1.0,1.0,67,0.00,,---,0.00,VWS V14.00,2013-09-05 18:20:00,
2013-09-05 14:25:00,74.5,62.8,30.00,North,355,1.0,2.0,67,0.00,,---,0.00,VWS V14.00,2013-09-05 18:25:00,
2013-09-05 14:30:00,74.6,63.3,30.00,North,355,0.0,0.0,68,0.00,,---,0.00,VWS V14.00,2013-09-05 18:30:00,
2013-09-05 14:35:00,75.2,63.5,29.99,North,355,1.0,1.0,67,0.00,,---,0.00,VWS V14.00,2013-09-05 18:35:00,
2013-09-05 14:40:00,75.4,63.7,30.00,North,355,1.0,2.0,67,0.00,,---,0.00,VWS V14.00,2013-09-05 18:40:00,
2013-09-05 14:45:00,75.2,58.9,30.00,NW,314,2.0,2.0,57,0.00,,---,0.00,VWS V14.00,2013-09-05 18:45:00,
2013-09-05 14:50:00,75.1,59.3,29.99,NW,314,1.0,1.0,58,0.00,,---,0.00,VWS V14.00,2013-09-05 18:50:00,
2013-09-05 14:55:00,75.1,60.3,29.99,NW,314,1.0,1.0,60,0.00,,---,0.00,VWS V14.00,2013-09-05 18:55:00,
2013-09-05 15:00:00,75.3,60.5,29.99,NW,314,1.0,1.0,60,0.00,,---,0.00,VWS V14.00,2013-09-05 19:00:00,
2013-09-05 15:05:00,76.0,60.2,29.99,NNE,23,2.0,2.0,58,0.00,,---,0.00,VWS V14.00,2013-09-05 19:05:00,
2013-09-05 15:10:00,76.3,58.5,29.99,NNW,333,0.0,2.0,54,0.00,,---,0.00,VWS V14.00,2013-09-05 19:10:00,
2013-09-05 15:15:00,76.4,58.5,29.99,NNW,334,0.0,1.0,54,0.00,,---,0.00,VWS V14.00,2013-09-05 19:15:00,
2013-09-05 15:20:00,76.9,56.3,29.99,NW,321,3.0,3.0,49,0.00,,---,0.00,VWS V14.00,2013-09-05 19:20:00,
2013-09-05 15:25:00,76.7,54.4,29.99,NW,314,4.0,4.0,46,0.00,,---,0.00,VWS V14.00,2013-09-05 19:25:00,
2013-09-05 15:30:00,76.2,53.9,29.99,NW,318,2.0,4.0,46,0.00,,---,0.00,VWS V14.00,2013-09-05 19:30:00,
2013-09-05 15:36:00,75.9,53.7,30.00,NNW,331,2.0,3.0,46,0.00,,---,0.00,VWS V14.00,2013-09-05 19:36:00,
2013-09-05 15:41:00,75.6,52.8,30.00,NW,318,1.0,3.0,45,0.00,,---,0.00,VWS V14.00,2013-09-05 19:41:00,
2013-09-05 15:46:00,75.3,51.3,30.00,NW,318,0.0,1.0,43,0.00,,---,0.00,VWS V14.00,2013-09-05 19:46:00,
2013-09-05 15:51:00,75.2,52.4,29.99,NW,318,0.0,1.0,45,0.00,,---,0.00,VWS V14.00,2013-09-05 19:51:00,
2013-09-05 15:56:00,75.4,51.4,29.99,NW,319,1.0,2.0,43,0.00,,---,0.00,VWS V14.00,2013-09-05 19:56:00,
2013-09-05 16:01:00,75.9,51.2,29.99,NNW,329,0.0,1.0,42,0.00,,---,0.00,VWS V14.00,2013-09-05 20:01:00,
2013-09-05 16:06:00,76.5,51.7,29.99,NNW,338,0.0,0.0,42,0.00,,---,0.00,VWS V14.00,2013-09-05 20:06:00,
2013-09-05 16:11:00,76.9,53.3,29.99,NW,307,0.0,0.0,44,0.00,,---,0.00,VWS V14.00,2013-09-05 20:11:00,
2013-09-05 16:16:00,77.0,51.5,29.99,NNW,339,0.0,0.0,41,0.00,,---,0.00,VWS V14.00,2013-09-05 20:16:00,
2013-09-05 16:21:00,77.0,51.5,29.99,NNW,336,3.0,5.0,41,0.00,,---,0.00,VWS V14.00,2013-09-05 20:21:00,
2013-09-05 16:26:00,76.8,51.3,29.99,NW,313,1.0,4.0,41,0.00,,---,0.00,VWS V14.00,2013-09-05 20:26:00,
2013-09-05 16:31:00,76.3,52.2,30.00,WNW,300,1.0,1.0,43,0.00,,---,0.00,VWS V14.00,2013-09-05 20:31:00,
2013-09-05 16:36:00,76.0,52.5,30.00,WNW,300,0.0,0.0,44,0.00,,---,0.00,VWS V14.00,2013-09-05 20:36:00,
2013-09-05 16:41:00,75.8,52.4,30.00,NW,308,1.0,3.0,44,0.00,,---,0.00,VWS V14.00,2013-09-05 20:41:00,
2013-09-05 16:46:00,75.6,50.9,30.00,NW,321,2.0,2.0,42,0.00,,---,0.00,VWS V14.00,2013-09-05 20:46:00,
2013-09-05 16:51:00,75.4,52.0,30.00,NW,306,0.0,1.0,44,0.00,,---,0.00,VWS V14.00,2013-09-05 20:51:00,
2013-09-05 16:56:00,75.3,51.9,30.00,NW,319,1.0,1.0,44,0.00,,---,0.00,VWS V14.00,2013-09-05 20:56:00,
2013-09-05 17:01:00,75.2,52.4,30.00,NW,313,2.0,2.0,45,0.00,,---,0.00,VWS V14.00,2013-09-05 21:01:00,
2013-09-05 17:07:00,75.3,52.5,30.01,NNW,345,1.0,2.0,45,0.00,,---,0.00,VWS V14.00,2013-09-05 21:07:00,
2013-09-05 17:12:00,75.3,50.7,30.01,NNW,336,1.0,3.0,42,0.00,,---,0.00,VWS V14.00,2013-09-05 21:12:00,
2013-09-05 17:17:00,75.2,51.2,30.01,North,350,2.0,2.0,43,0.00,,---,0.00,VWS V14.00,2013-09-05 21:17:00,
2013-09-05 17:22:00,75.1,50.5,30.01,NNW,336,3.0,4.0,42,0.00,,---,0.00,VWS V14.00,2013-09-05 21:22:00,
2013-09-05 17:27:00,74.9,50.9,30.01,NW,311,1.0,2.0,43,0.00,,---,0.00,VWS V14.00,2013-09-05 21:27:00,
2013-09-05 17:32:00,74.9,50.9,30.01,NW,308,1.0,2.0,43,0.00,,---,0.00,VWS V14.00,2013-09-05 21:32:00,
2013-09-05 17:37:00,74.8,51.5,30.02,NW,324,0.0,0.0,44,0.00,,---,0.00,VWS V14.00,2013-09-05 21:37:00,
2013-09-05 17:42:00,74.7,51.4,30.02,NNW,346,1.0,2.0,44,0.00,,---,0.00,VWS V14.00,2013-09-05 21:42:00,
2013-09-05 17:47:00,74.6,51.9,30.02,North,9,2.0,2.0,45,0.00,,---,0.00,VWS V14.00,2013-09-05 21:47:00,
2013-09-05 17:52:00,74.4,51.7,30.02,NNW,338,2.0,4.0,45,0.00,,---,0.00,VWS V14.00,2013-09-05 21:52:00,
2013-09-05 17:57:00,74.1,50.2,30.03,NNW,331,1.0,5.0,43,0.00,,---,0.00,VWS V14.00,2013-09-05 21:57:00,
2013-09-05 18:02:00,73.8,50.5,30.03,NW,317,1.0,2.0,44,0.00,,---,0.00,VWS V14.00,2013-09-05 22:02:00,
2013-09-05 18:07:00,73.5,49.7,30.03,NNW,343,2.0,2.0,43,0.00,,---,0.00,VWS V14.00,2013-09-05 22:07:00,
2013-09-05 18:12:00,73.3,50.1,30.03,NNW,339,2.0,2.0,44,0.00,,---,0.00,VWS V14.00,2013-09-05 22:12:00,
2013-09-05 18:17:00,73.1,49.9,30.04,NNW,344,0.0,0.0,44,0.00,,---,0.00,VWS V14.00,2013-09-05 22:17:00,
2013-09-05 18:22:00,72.9,50.3,30.04,WNW,302,0.0,1.0,45,0.00,,---,0.00,VWS V14.00,2013-09-05 22:22:00,
2013-09-05 18:27:00,72.8,50.8,30.04,WNW,302,1.0,2.0,46,0.00,,---,0.00,VWS V14.00,2013-09-05 22:27:00,
2013-09-05 18:32:00,72.6,48.8,30.04,NNW,340,1.0,3.0,43,0.00,,---,0.00,VWS V14.00,2013-09-05 22:32:00,
2013-09-05 18:37:00,72.3,48.0,30.04,North,360,2.0,4.0,42,0.00,,---,0.00,VWS V14.00,2013-09-05 22:37:00,
2013-09-05 18:43:00,72.0,47.0,30.04,NNW,346,1.0,1.0,41,0.00,,---,0.00,VWS V14.00,2013-09-05 22:43:00,
2013-09-05 18:48:00,71.7,47.4,30.05,NNW,334,2.0,2.0,42,0.00,,---,0.00,VWS V14.00,2013-09-05 22:48:00,
2013-09-05 18:53:00,71.4,47.1,30.05,NNW,336,1.0,1.0,42,0.00,,---,0.00,VWS V14.00,2013-09-05 22:53:00,
2013-09-05 18:58:00,71.1,47.5,30.05,NNW,336,1.0,1.0,43,0.00,,---,0.00,VWS V14.00,2013-09-05 22:58:00,
2013-09-05 19:03:00,70.8,47.2,30.05,North,360,2.0,2.0,43,0.00,,---,0.00,VWS V14.00,2013-09-05 23:03:00,
2013-09-05 19:08:00,70.5,47.0,30.05,North,360,0.0,0.0,43,0.00,,---,0.00,VWS V14.00,2013-09-05 23:08:00,
2013-09-05 19:13:00,70.2,46.7,30.06,NNW,329,3.0,3.0,43,0.00,,---,0.00,VWS V14.00,2013-09-05 23:13:00,
2013-09-05 19:18:00,69.9,46.4,30.06,NNW,336,0.0,1.0,43,0.00,,---,0.00,VWS V14.00,2013-09-05 23:18:00,
2013-09-05 19:23:00,69.7,46.2,30.06,North,351,1.0,1.0,43,0.00,,---,0.00,VWS V14.00,2013-09-05 23:23:00,
2013-09-05 19:28:00,69.5,46.7,30.07,North,351,0.0,0.0,44,0.00,,---,0.00,VWS V14.00,2013-09-05 23:28:00,
2013-09-05 19:33:00,69.2,47.0,30.07,North,351,0.0,0.0,45,0.00,,---,0.00,VWS V14.00,2013-09-05 23:33:00,
2013-09-05 19:38:00,69.0,46.8,30.07,North,351,0.0,0.0,45,0.00,,---,0.00,VWS V14.00,2013-09-05 23:38:00,
2013-09-05 19:43:00,68.7,46.5,30.07,North,351,0.0,0.0,45,0.00,,---,0.00,VWS V14.00,2013-09-05 23:43:00,
2013-09-05 19:48:00,68.5,46.9,30.07,North,351,0.0,0.0,46,0.00,,---,0.00,VWS V14.00,2013-09-05 23:48:00,
2013-09-05 19:53:00,68.3,46.7,30.08,North,351,0.0,0.0,46,0.00,,---,0.00,VWS V14.00,2013-09-05 23:53:00,
2013-09-05 19:58:00,68.2,47.2,30.08,North,351,0.0,0.0,47,0.00,,---,0.00,VWS V14.00,2013-09-05 23:58:00,
2013-09-05 20:03:00,67.9,46.4,30.08,North,351,0.0,0.0,46,0.00,,---,0.00,VWS V14.00,2013-09-06 00:03:00,
2013-09-05 20:08:00,67.8,47.4,30.08,North,351,0.0,1.0,48,0.00,,---,0.00,VWS V14.00,2013-09-06 00:08:00,
2013-09-05 20:13:00,67.5,47.1,30.08,North,351,0.0,0.0,48,0.00,,---,0.00,VWS V14.00,2013-09-06 00:13:00,
2013-09-05 20:19:00,67.3,47.5,30.08,North,351,0.0,1.0,49,0.00,,---,0.00,VWS V14.00,2013-09-06 00:19:00,
2013-09-05 20:24:00,67.0,47.2,30.09,North,351,0.0,0.0,49,0.00,,---,0.00,VWS V14.00,2013-09-06 00:24:00,
2013-09-05 20:29:00,66.8,47.0,30.09,North,351,0.0,0.0,49,0.00,,---,0.00,VWS V14.00,2013-09-06 00:29:00,
2013-09-05 20:34:00,66.7,46.4,30.09,North,351,0.0,0.0,48,0.00,,---,0.00,VWS V14.00,2013-09-06 00:34:00,
2013-09-05 20:39:00,66.7,47.0,30.09,North,351,0.0,1.0,49,0.00,,---,0.00,VWS V14.00,2013-09-06 00:39:00,
2013-09-05 20:44:00,66.7,47.0,30.10,North,351,0.0,0.0,49,0.00,,---,0.00,VWS V14.00,2013-09-06 00:44:00,
2013-09-05 20:49:00,66.7,46.4,30.10,North,351,0.0,0.0,48,0.00,,---,0.00,VWS V14.00,2013-09-06 00:49:00,
2013-09-05 20:54:00,66.7,47.0,30.10,North,351,0.0,0.0,49,0.00,,---,0.00,VWS V14.00,2013-09-06 00:54:00,
2013-09-05 20:59:00,66.5,46.8,30.10,North,351,0.0,0.0,49,0.00,,---,0.00,VWS V14.00,2013-09-06 00:59:00,
2013-09-05 21:04:00,66.2,47.0,30.10,North,351,0.0,0.0,50,0.00,,---,0.00,VWS V14.00,2013-09-06 01:04:00,
2013-09-05 21:09:00,66.0,46.8,30.10,North,351,0.0,0.0,50,0.00,,---,0.00,VWS V14.00,2013-09-06 01:09:00,
2013-09-05 21:14:00,65.9,46.8,30.11,North,351,0.0,0.0,50,0.00,,---,0.00,VWS V14.00,2013-09-06 01:14:00,
2013-09-05 21:19:00,65.8,46.7,30.11,North,351,0.0,0.0,50,0.00,,---,0.00,VWS V14.00,2013-09-06 01:19:00,
2013-09-05 21:24:00,65.7,47.1,30.11,North,351,0.0,0.0,51,0.00,,---,0.00,VWS V14.00,2013-09-06 01:24:00,
2013-09-05 21:29:00,65.6,47.5,30.11,North,351,0.0,0.0,52,0.00,,---,0.00,VWS V14.00,2013-09-06 01:29:00,
2013-09-05 21:34:00,65.4,46.8,30.11,North,351,0.0,0.0,51,0.00,,---,0.00,VWS V14.00,2013-09-06 01:34:00,
2013-09-05 21:39:00,65.3,47.2,30.11,North,351,0.0,0.0,52,0.00,,---,0.00,VWS V14.00,2013-09-06 01:39:00,
2013-09-05 21:44:00,65.2,47.2,30.11,North,351,0.0,0.0,52,0.00,,---,0.00,VWS V14.00,2013-09-06 01:44:00,
2013-09-05 21:49:00,65.0,47.0,30.12,North,351,0.0,0.0,52,0.00,,---,0.00,VWS V14.00,2013-09-06 01:49:00,
2013-09-05 21:55:00,64.9,47.4,30.12,North,351,0.0,0.0,53,0.00,,---,0.00,VWS V14.00,2013-09-06 01:55:00,
2013-09-05 22:00:00,64.8,47.3,30.12,North,351,0.0,0.0,53,0.00,,---,0.00,VWS V14.00,2013-09-06 02:00:00,
2013-09-05 22:05:00,64.6,48.1,30.12,North,351,0.0,0.0,55,0.00,,---,0.00,VWS V14.00,2013-09-06 02:05:00,
2013-09-05 22:10:00,64.3,47.3,30.12,North,351,0.0,0.0,54,0.00,,---,0.00,VWS V14.00,2013-09-06 02:10:00,
2013-09-05 22:15:00,64.1,47.1,30.12,North,351,0.0,0.0,54,0.00,,---,0.00,VWS V14.00,2013-09-06 02:15:00,
2013-09-05 22:20:00,64.0,47.5,30.12,North,351,0.0,0.0,55,0.00,,---,0.00,VWS V14.00,2013-09-06 02:20:00,
2013-09-05 22:25:00,63.8,49.2,30.13,North,351,0.0,0.0,59,0.00,,---,0.00,VWS V14.00,2013-09-06 02:25:00,
2013-09-05 22:30:00,63.6,49.5,30.13,North,351,0.0,0.0,60,0.00,,---,0.00,VWS V14.00,2013-09-06 02:30:00,
2013-09-05 22:35:00,63.3,49.6,30.13,North,351,0.0,0.0,61,0.00,,---,0.00,VWS V14.00,2013-09-06 02:35:00,
2013-09-05 22:40:00,62.9,50.1,30.13,North,351,0.0,0.0,63,0.00,,---,0.00,VWS V14.00,2013-09-06 02:40:00,
2013-09-05 22:45:00,62.5,50.2,30.14,North,351,0.0,0.0,64,0.00,,---,0.00,VWS V14.00,2013-09-06 02:45:00,
2013-09-05 22:50:00,62.0,50.5,30.14,North,351,0.0,0.0,66,0.00,,---,0.00,VWS V14.00,2013-09-06 02:50:00,
2013-09-05 22:55:00,61.7,50.2,30.14,North,351,0.0,0.0,66,0.00,,---,0.00,VWS V14.00,2013-09-06 02:55:00,
2013-09-05 23:00:00,61.5,50.8,30.14,North,351,0.0,0.0,68,0.00,,---,0.00,VWS V14.00,2013-09-06 03:00:00,
2013-09-05 23:05:00,61.2,51.3,30.14,North,351,0.0,0.0,70,0.00,,---,0.00,VWS V14.00,2013-09-06 03:05:00,
2013-09-05 23:11:00,60.8,51.0,30.14,North,351,0.0,0.0,70,0.00,,---,0.00,VWS V14.00,2013-09-06 03:11:00,
2013-09-05 23:16:00,60.4,50.6,30.14,North,351,0.0,0.0,70,0.00,,---,0.00,VWS V14.00,2013-09-06 03:16:00,
2013-09-05 23:21:00,60.2,50.4,30.14,North,351,0.0,0.0,70,0.00,,---,0.00,VWS V14.00,2013-09-06 03:21:00,
2013-09-05 23:26:00,59.9,49.3,30.14,North,351,0.0,0.0,68,0.00,,---,0.00,VWS V14.00,2013-09-06 03:26:00,
2013-09-05 23:31:00,59.8,49.6,30.14,North,351,0.0,0.0,69,0.00,,---,0.00,VWS V14.00,2013-09-06 03:31:00,
2013-09-05 23:36:00,59.7,49.5,30.15,North,351,0.0,0.0,69,0.00,,---,0.00,VWS V14.00,2013-09-06 03:36:00,
2013-09-05 23:41:00,59.8,49.6,30.14,North,351,0.0,0.0,69,0.00,,---,0.00,VWS V14.00,2013-09-06 03:41:00,
2013-09-05 23:46:00,59.9,48.5,30.15,North,351,0.0,0.0,66,0.00,,---,0.00,VWS V14.00,2013-09-06 03:46:00,
2013-09-05 23:51:00,60.1,49.1,30.15,North,351,0.0,0.0,67,0.00,,---,0.00,VWS V14.00,2013-09-06 03:51:00,
2013-09-05 23:56:00,60.2,50.0,30.15,North,351,0.0,0.0,69,0.00,,---,0.00,VWS V14.00,2013-09-06 03:56:00,